Location: Unspecified
(41.1637°N, 24.2901°E)
Time: 22:03:47
(UTC+02:00)

ISS - Pass Details

Date: 28 May 2023
Orbit: 411 x 419 km, 51.6° (Epoch: 06 June)

Event Time Altitude Azimuth Distance (km) Brightness Sun altitude
Rises 21:12:46 0° 306° (NW) 2,355 1.9 -13.7°
Reaches altitude 10° 21:14:52 10° 307° (NW) 1,491 0.4 -14.0°
Maximum altitude 21:18:13 82° 36° (NE) 425 -3.8 -14.5°
Enters shadow 21:19:42 31° 120° (ESE) 760 -3.0 -14.6°
